Time,TemperatureF,DewpointF,PressureIn,WindDirection,WindDirectionDegrees,WindSpeedMPH,WindSpeedGustMPH,Humidity,HourlyPrecipIn,Conditions,Clouds,dailyrainin,SoftwareType,DateUTC
2013-08-06 00:00:00,69.7,63.3,29.94,SSE,151,0.0,10.0,80,0.00,,,0.00,Wunderground v.1.15,2013-08-06 04:00:00,
2013-08-06 00:02:00,69.5,63.4,29.94,SSE,151,1.0,10.0,81,0.00,,,0.00,Wunderground v.1.15,2013-08-06 04:02:00,
2013-08-06 00:04:00,69.1,63.0,29.94,SSE,151,1.0,10.0,81,0.00,,,0.00,Wunderground v.1.15,2013-08-06 04:04:00,
2013-08-06 00:08:00,68.6,62.9,29.94,SSE,151,1.0,10.0,82,0.00,,,0.00,Wunderground v.1.15,2013-08-06 04:08:00,
2013-08-06 00:12:00,68.1,62.7,29.94,SSE,151,0.0,10.0,83,0.00,,,0.00,Wunderground v.1.15,2013-08-06 04:12:00,
2013-08-06 00:16:00,67.7,62.7,29.94,SSE,151,0.0,10.0,84,0.00,,,0.00,Wunderground v.1.15,2013-08-06 04:16:00,
2013-08-06 00:18:00,67.6,62.9,29.93,SSE,151,0.0,10.0,85,0.00,,,0.00,Wunderground v.1.15,2013-08-06 04:18:00,
2013-08-06 00:20:00,67.5,62.5,29.93,SSE,151,0.0,10.0,84,0.00,,,0.00,Wunderground v.1.15,2013-08-06 04:20:00,
2013-08-06 00:24:00,67.3,62.6,29.94,SSE,151,0.0,10.0,85,0.00,,,0.00,Wunderground v.1.15,2013-08-06 04:24:00,
2013-08-06 00:26:00,67.3,63.0,29.94,SSE,151,0.0,10.0,86,0.00,,,0.00,Wunderground v.1.15,2013-08-06 04:26:00,
2013-08-06 00:30:00,67.2,62.9,29.94,SSE,151,0.0,10.0,86,0.00,,,0.00,Wunderground v.1.15,2013-08-06 04:30:00,
2013-08-06 00:32:00,67.2,62.9,29.93,SSE,151,0.0,10.0,86,0.00,,,0.00,Wunderground v.1.15,2013-08-06 04:32:00,
2013-08-06 00:34:00,67.2,62.9,29.94,SSE,151,0.0,10.0,86,0.00,,,0.00,Wunderground v.1.15,2013-08-06 04:34:00,
2013-08-06 00:40:00,67.3,62.6,29.94,SSE,151,0.0,10.0,85,0.00,,,0.00,Wunderground v.1.15,2013-08-06 04:40:00,
2013-08-06 00:42:00,67.3,62.6,29.93,SSE,151,0.0,10.0,85,0.00,,,0.00,Wunderground v.1.15,2013-08-06 04:42:00,
2013-08-06 00:44:00,67.4,62.7,29.93,SSE,151,0.0,10.0,85,0.00,,,0.00,Wunderground v.1.15,2013-08-06 04:44:00,
2013-08-06 00:46:00,67.4,62.7,29.93,SSE,151,0.0,10.0,85,0.00,,,0.00,Wunderground v.1.15,2013-08-06 04:46:00,
2013-08-06 00:48:00,67.4,62.7,29.93,SSE,151,0.0,10.0,85,0.00,,,0.00,Wunderground v.1.15,2013-08-06 04:48:00,
2013-08-06 00:50:00,67.5,62.8,29.93,SSE,151,0.0,10.0,85,0.00,,,0.00,Wunderground v.1.15,2013-08-06 04:50:00,
2013-08-06 00:52:00,67.5,62.8,29.93,SSE,151,0.0,10.0,85,0.00,,,0.00,Wunderground v.1.15,2013-08-06 04:52:00,
2013-08-06 00:54:00,67.5,62.8,29.93,SSE,151,0.0,10.0,85,0.00,,,0.00,Wunderground v.1.15,2013-08-06 04:54:00,
2013-08-06 00:56:00,67.5,62.8,29.93,SSE,151,0.0,10.0,85,0.00,,,0.00,Wunderground v.1.15,2013-08-06 04:56:00,
2013-08-06 00:58:00,67.6,63.3,29.93,SSE,151,0.0,10.0,86,0.00,,,0.00,Wunderground v.1.15,2013-08-06 04:58:00,
2013-08-06 01:04:00,67.5,63.5,29.93,SSE,151,0.0,10.0,87,0.00,,,0.00,Wunderground v.1.15,2013-08-06 05:04:00,
2013-08-06 01:06:00,67.4,63.4,29.93,SSE,151,0.0,10.0,87,0.00,,,0.00,Wunderground v.1.15,2013-08-06 05:06:00,
2013-08-06 01:08:00,67.3,63.3,29.93,SSE,151,0.0,10.0,87,0.00,,,0.00,Wunderground v.1.15,2013-08-06 05:08:00,
2013-08-06 01:10:00,67.3,63.6,29.93,SSE,151,0.0,10.0,88,0.00,,,0.00,Wunderground v.1.15,2013-08-06 05:10:00,
2013-08-06 01:12:00,67.2,63.5,29.93,SSE,151,0.0,10.0,88,0.00,,,0.00,Wunderground v.1.15,2013-08-06 05:12:00,
2013-08-06 01:16:00,67.1,63.4,29.93,SSE,151,0.0,10.0,88,0.00,,,0.00,Wunderground v.1.15,2013-08-06 05:16:00,
2013-08-06 01:18:00,67.0,63.6,29.93,SSE,151,0.0,10.0,89,0.00,,,0.00,Wunderground v.1.15,2013-08-06 05:18:00,
2013-08-06 01:22:00,66.9,63.6,29.93,SSE,151,0.0,10.0,89,0.00,,,0.00,Wunderground v.1.15,2013-08-06 05:22:00,
2013-08-06 01:24:00,66.8,63.8,29.93,SSE,151,0.0,10.0,90,0.00,,,0.00,Wunderground v.1.15,2013-08-06 05:24:00,
2013-08-06 01:26:00,66.8,63.8,29.93,SSE,151,0.0,10.0,90,0.00,,,0.00,Wunderground v.1.15,2013-08-06 05:26:00,
2013-08-06 01:30:00,66.7,63.4,29.93,SSE,151,1.0,10.0,89,0.00,,,0.00,Wunderground v.1.15,2013-08-06 05:30:00,
2013-08-06 01:32:00,66.7,63.7,29.93,SSE,151,1.0,10.0,90,0.00,,,0.00,Wunderground v.1.15,2013-08-06 05:32:00,
2013-08-06 01:34:00,66.7,63.7,29.93,SSE,151,1.0,10.0,90,0.00,,,0.00,Wunderground v.1.15,2013-08-06 05:34:00,
2013-08-06 01:38:00,66.8,63.8,29.93,SSE,151,0.0,10.0,90,0.00,,,0.00,Wunderground v.1.15,2013-08-06 05:38:00,
2013-08-06 01:40:00,66.8,63.8,29.93,SSE,151,0.0,10.0,90,0.00,,,0.00,Wunderground v.1.15,2013-08-06 05:40:00,
2013-08-06 01:42:00,66.9,63.9,29.92,SSE,151,0.0,10.0,90,0.00,,,0.00,Wunderground v.1.15,2013-08-06 05:42:00,
2013-08-06 01:46:00,67.0,64.0,29.93,SSE,151,1.0,10.0,90,0.00,,,0.00,Wunderground v.1.15,2013-08-06 05:46:00,
2013-08-06 01:48:00,67.0,64.0,29.93,SSE,151,1.0,10.0,90,0.00,,,0.00,Wunderground v.1.15,2013-08-06 05:48:00,
2013-08-06 01:50:00,67.0,63.6,29.92,SSE,151,1.0,10.0,89,0.00,,,0.00,Wunderground v.1.15,2013-08-06 05:50:00,
2013-08-06 01:56:00,67.2,63.8,29.92,SSE,151,1.0,10.0,89,0.00,,,0.00,Wunderground v.1.15,2013-08-06 05:56:00,
2013-08-06 01:58:00,67.2,63.8,29.92,SSE,151,1.0,10.0,89,0.00,,,0.00,Wunderground v.1.15,2013-08-06 05:58:00,
2013-08-06 02:02:00,67.3,63.6,29.92,SSE,151,1.0,10.0,88,0.00,,,0.00,Wunderground v.1.15,2013-08-06 06:02:00,
2013-08-06 02:04:00,67.3,63.6,29.92,SSE,151,1.0,10.0,88,0.00,,,0.00,Wunderground v.1.15,2013-08-06 06:04:00,
2013-08-06 02:10:00,67.4,63.7,29.92,SSE,151,1.0,1.0,88,0.00,,,0.00,Wunderground v.1.15,2013-08-06 06:10:00,
2013-08-06 02:12:00,67.4,63.7,29.92,SSE,151,0.0,10.0,88,0.00,,,0.00,Wunderground v.1.15,2013-08-06 06:12:00,
2013-08-06 02:16:00,67.4,64.0,29.92,SSE,151,0.0,10.0,89,0.00,,,0.00,Wunderground v.1.15,2013-08-06 06:16:00,
2013-08-06 02:18:00,67.4,64.0,29.92,SSE,151,1.0,10.0,89,0.00,,,0.00,Wunderground v.1.15,2013-08-06 06:18:00,
2013-08-06 02:20:00,67.4,64.0,29.92,SSE,151,1.0,10.0,89,0.00,,,0.00,Wunderground v.1.15,2013-08-06 06:20:00,
2013-08-06 02:22:00,67.4,64.0,29.92,SSE,151,1.0,10.0,89,0.00,,,0.00,Wunderground v.1.15,2013-08-06 06:22:00,
2013-08-06 02:24:00,67.3,63.9,29.92,SSE,151,2.0,10.0,89,0.00,,,0.00,Wunderground v.1.15,2013-08-06 06:24:00,
2013-08-06 02:26:00,67.2,63.8,29.92,South,172,2.0,10.0,89,0.00,,,0.00,Wunderground v.1.15,2013-08-06 06:26:00,
2013-08-06 02:32:00,67.6,63.9,29.92,South,173,2.0,10.0,88,0.00,,,0.00,Wunderground v.1.15,2013-08-06 06:32:00,
2013-08-06 02:38:00,68.3,63.9,29.92,South,174,2.0,10.0,86,0.00,,,0.00,Wunderground v.1.15,2013-08-06 06:38:00,
2013-08-06 02:42:00,68.7,64.0,29.92,South,174,2.0,10.0,85,0.00,,,0.00,Wunderground v.1.15,2013-08-06 06:42:00,
2013-08-06 02:44:00,68.8,63.8,29.92,South,175,2.0,10.0,84,0.00,,,0.00,Wunderground v.1.15,2013-08-06 06:44:00,
2013-08-06 02:46:00,68.9,63.9,29.92,South,181,2.0,10.0,84,0.00,,,0.00,Wunderground v.1.15,2013-08-06 06:46:00,
2013-08-06 02:50:00,69.2,64.2,29.92,South,186,2.0,10.0,84,0.00,,,0.00,Wunderground v.1.15,2013-08-06 06:50:00,
2013-08-06 02:52:00,69.2,63.8,29.92,South,187,2.0,10.0,83,0.00,,,0.00,Wunderground v.1.15,2013-08-06 06:52:00,
2013-08-06 02:54:00,69.4,64.0,29.92,South,189,2.0,10.0,83,0.00,,,0.00,Wunderground v.1.15,2013-08-06 06:54:00,
2013-08-06 02:58:00,69.6,63.9,29.92,SSW,197,2.0,10.0,82,0.00,,,0.00,Wunderground v.1.15,2013-08-06 06:58:00,
2013-08-06 03:00:00,69.7,64.0,29.93,SSW,205,3.0,10.0,82,0.00,,,0.00,Wunderground v.1.15,2013-08-06 07:00:00,
2013-08-06 03:04:00,69.9,63.8,29.92,SSW,202,3.0,10.0,81,0.00,,,0.00,Wunderground v.1.15,2013-08-06 07:04:00,
2013-08-06 03:08:00,69.9,63.8,29.92,SSW,203,3.0,10.0,81,0.00,,,0.00,Wunderground v.1.15,2013-08-06 07:08:00,
2013-08-06 03:12:00,70.0,63.9,29.92,SSW,207,3.0,10.0,81,0.00,,,0.00,Wunderground v.1.15,2013-08-06 07:12:00,
2013-08-06 03:14:00,69.9,63.8,29.92,SSW,207,3.0,10.0,81,0.00,,,0.00,Wunderground v.1.15,2013-08-06 07:14:00,
2013-08-06 03:18:00,69.9,63.8,29.92,SSW,199,3.0,10.0,81,0.00,,,0.00,Wunderground v.1.15,2013-08-06 07:18:00,
2013-08-06 03:20:00,69.9,64.2,29.92,SSW,199,2.0,10.0,82,0.00,,,0.00,Wunderground v.1.15,2013-08-06 07:20:00,
2013-08-06 03:22:00,69.9,64.2,29.92,SSW,197,3.0,10.0,82,0.00,,,0.00,Wunderground v.1.15,2013-08-06 07:22:00,
2013-08-06 03:24:00,69.8,64.1,29.92,SSW,196,2.0,10.0,82,0.00,,,0.00,Wunderground v.1.15,2013-08-06 07:24:00,
2013-08-06 03:26:00,69.8,64.1,29.92,SSW,197,2.0,10.0,82,0.00,,,0.00,Wunderground v.1.15,2013-08-06 07:26:00,
2013-08-06 03:28:00,69.8,64.1,29.92,SSW,196,2.0,10.0,82,0.00,,,0.00,Wunderground v.1.15,2013-08-06 07:28:00,
2013-08-06 03:30:00,69.7,64.0,29.92,SSW,196,1.0,1.0,82,0.00,,,0.00,Wunderground v.1.15,2013-08-06 07:30:00,
2013-08-06 03:32:00,69.7,64.0,29.92,SSW,197,1.0,10.0,82,0.00,,,0.00,Wunderground v.1.15,2013-08-06 07:32:00,
2013-08-06 03:34:00,69.6,63.9,29.92,SSW,196,0.0,10.0,82,0.00,,,0.00,Wunderground v.1.15,2013-08-06 07:34:00,
2013-08-06 03:36:00,69.5,64.1,29.91,SSW,196,0.0,10.0,83,0.00,,,0.00,Wunderground v.1.15,2013-08-06 07:36:00,
2013-08-06 03:38:00,69.4,64.0,29.91,SSW,197,0.0,10.0,83,0.00,,,0.00,Wunderground v.1.15,2013-08-06 07:38:00,
2013-08-06 03:40:00,69.4,64.0,29.91,SSW,196,0.0,10.0,83,0.00,,,0.00,Wunderground v.1.15,2013-08-06 07:40:00,
2013-08-06 03:44:00,69.1,64.1,29.91,SSW,196,1.0,10.0,84,0.00,,,0.00,Wunderground v.1.15,2013-08-06 07:44:00,
2013-08-06 03:46:00,69.0,64.0,29.91,SSW,196,1.0,10.0,84,0.00,,,0.00,Wunderground v.1.15,2013-08-06 07:46:00,
2013-08-06 03:50:00,68.7,64.0,29.90,SSW,195,1.0,1.0,85,0.00,,,0.00,Wunderground v.1.15,2013-08-06 07:50:00,
2013-08-06 03:52:00,68.6,64.2,29.90,SSW,196,1.0,10.0,86,0.00,,,0.00,Wunderground v.1.15,2013-08-06 07:52:00,
2013-08-06 03:54:00,68.5,64.1,29.91,SSW,196,1.0,10.0,86,0.00,,,0.00,Wunderground v.1.15,2013-08-06 07:54:00,
2013-08-06 03:56:00,68.4,64.0,29.90,SSW,193,1.0,10.0,86,0.00,,,0.00,Wunderground v.1.15,2013-08-06 07:56:00,
2013-08-06 04:00:00,68.3,63.9,29.90,South,174,1.0,10.0,86,0.00,,,0.00,Wunderground v.1.15,2013-08-06 08:00:00,
2013-08-06 04:02:00,68.2,64.2,29.90,South,174,1.0,10.0,87,0.00,,,0.00,Wunderground v.1.15,2013-08-06 08:02:00,
2013-08-06 04:06:00,68.1,64.1,29.90,South,174,1.0,10.0,87,0.00,,,0.00,Wunderground v.1.15,2013-08-06 08:06:00,
2013-08-06 04:08:00,68.1,63.8,29.90,South,174,1.0,10.0,86,0.00,,,0.00,Wunderground v.1.15,2013-08-06 08:08:00,
2013-08-06 04:10:00,68.2,63.9,29.90,South,174,1.0,1.0,86,0.00,,,0.00,Wunderground v.1.15,2013-08-06 08:10:00,
2013-08-06 04:12:00,68.3,63.9,29.90,South,174,1.0,10.0,86,0.00,,,0.00,Wunderground v.1.15,2013-08-06 08:12:00,
2013-08-06 04:16:00,68.5,63.8,29.90,South,174,1.0,10.0,85,0.00,,,0.00,Wunderground v.1.15,2013-08-06 08:16:00,
2013-08-06 04:18:00,68.5,63.8,29.90,South,174,1.0,10.0,85,0.00,,,0.00,Wunderground v.1.15,2013-08-06 08:18:00,
2013-08-06 04:20:00,68.6,63.9,29.90,South,174,1.0,10.0,85,0.00,,,0.00,Wunderground v.1.15,2013-08-06 08:20:00,
2013-08-06 04:22:00,68.7,64.0,29.90,South,176,1.0,10.0,85,0.00,,,0.00,Wunderground v.1.15,2013-08-06 08:22:00,
2013-08-06 04:24:00,68.7,64.0,29.90,South,176,1.0,10.0,85,0.00,,,0.00,Wunderground v.1.15,2013-08-06 08:24:00,
2013-08-06 04:26:00,68.8,64.1,29.90,South,181,1.0,10.0,85,0.00,,,0.00,Wunderground v.1.15,2013-08-06 08:26:00,
2013-08-06 04:28:00,68.8,63.8,29.90,South,183,2.0,10.0,84,0.00,,,0.00,Wunderground v.1.15,2013-08-06 08:28:00,
2013-08-06 04:32:00,68.9,63.9,29.89,South,188,2.0,3.0,84,0.00,,,0.00,Wunderground v.1.15,2013-08-06 08:32:00,
2013-08-06 04:34:00,68.9,64.2,29.89,South,172,2.0,10.0,85,0.00,,,0.00,Wunderground v.1.15,2013-08-06 08:34:00,
2013-08-06 04:36:00,68.9,64.2,29.89,South,171,2.0,10.0,85,0.00,,,0.00,Wunderground v.1.15,2013-08-06 08:36:00,
2013-08-06 04:38:00,68.8,64.1,29.89,SW,220,2.0,10.0,85,0.00,,,0.00,Wunderground v.1.15,2013-08-06 08:38:00,
2013-08-06 04:40:00,68.8,64.1,29.89,South,179,2.0,10.0,85,0.00,,,0.00,Wunderground v.1.15,2013-08-06 08:40:00,
2013-08-06 04:42:00,68.9,64.2,29.89,SSW,198,3.0,10.0,85,0.00,,,0.00,Wunderground v.1.15,2013-08-06 08:42:00,
2013-08-06 04:48:00,68.9,64.2,29.89,SSW,201,3.0,10.0,85,0.00,,,0.00,Wunderground v.1.15,2013-08-06 08:48:00,
2013-08-06 04:50:00,68.9,64.2,29.89,SSW,201,3.0,3.0,85,0.00,,,0.00,Wunderground v.1.15,2013-08-06 08:50:00,
2013-08-06 04:52:00,68.9,64.2,29.88,SSW,213,3.0,10.0,85,0.00,,,0.00,Wunderground v.1.15,2013-08-06 08:52:00,
2013-08-06 04:56:00,68.9,64.2,29.88,SSW,213,2.0,10.0,85,0.00,,,0.00,Wunderground v.1.15,2013-08-06 08:56:00,
2013-08-06 04:58:00,68.9,64.2,29.88,SSW,213,2.0,10.0,85,0.00,,,0.00,Wunderground v.1.15,2013-08-06 08:58:00,
2013-08-06 05:02:00,68.8,64.4,29.88,SSW,213,1.0,10.0,86,0.00,,,0.00,Wunderground v.1.15,2013-08-06 09:02:00,
2013-08-06 05:06:00,68.6,64.2,29.88,SSW,197,1.0,10.0,86,0.00,,,0.00,Wunderground v.1.15,2013-08-06 09:06:00,
2013-08-06 05:08:00,68.5,64.5,29.88,SSW,197,1.0,10.0,87,0.00,,,0.00,Wunderground v.1.15,2013-08-06 09:08:00,
2013-08-06 05:10:00,68.5,64.1,29.88,SSW,197,1.0,10.0,86,0.00,,,0.00,Wunderground v.1.15,2013-08-06 09:10:00,
2013-08-06 05:12:00,68.3,64.3,29.88,SSW,197,1.0,10.0,87,0.00,,,0.00,Wunderground v.1.15,2013-08-06 09:12:00,
2013-08-06 05:16:00,68.2,64.2,29.88,SSW,197,1.0,10.0,87,0.00,,,0.00,Wunderground v.1.15,2013-08-06 09:16:00,
2013-08-06 05:20:00,68.0,64.0,29.89,SSW,197,0.0,10.0,87,0.00,,,0.00,Wunderground v.1.15,2013-08-06 09:20:00,
2013-08-06 05:26:00,67.9,63.9,29.88,SSW,197,0.0,10.0,87,0.00,,,0.00,Wunderground v.1.15,2013-08-06 09:26:00,
2013-08-06 05:28:00,67.9,64.2,29.89,SSW,197,0.0,10.0,88,0.00,,,0.00,Wunderground v.1.15,2013-08-06 09:28:00,
2013-08-06 05:30:00,67.8,64.1,29.89,SSW,197,1.0,10.0,88,0.00,,,0.00,Wunderground v.1.15,2013-08-06 09:30:00,
2013-08-06 05:34:00,67.8,64.1,29.89,South,172,1.0,10.0,88,0.00,,,0.00,Wunderground v.1.15,2013-08-06 09:34:00,
2013-08-06 05:36:00,67.7,64.0,29.89,SSE,165,1.0,10.0,88,0.00,,,0.00,Wunderground v.1.15,2013-08-06 09:36:00,
2013-08-06 05:38:00,67.7,64.0,29.89,SSE,165,2.0,10.0,88,0.00,,,0.00,Wunderground v.1.15,2013-08-06 09:38:00,
2013-08-06 05:40:00,67.7,64.0,29.89,SSE,165,2.0,2.0,88,0.00,,,0.00,Wunderground v.1.15,2013-08-06 09:40:00,
2013-08-06 05:42:00,67.7,64.0,29.89,SSE,165,2.0,10.0,88,0.00,,,0.00,Wunderground v.1.15,2013-08-06 09:42:00,
2013-08-06 05:46:00,67.6,64.2,29.89,SSE,165,2.0,10.0,89,0.00,,,0.00,Wunderground v.1.15,2013-08-06 09:46:00,
2013-08-06 05:52:00,67.5,64.1,29.89,SSE,165,2.0,10.0,89,0.00,,,0.00,Wunderground v.1.15,2013-08-06 09:52:00,
2013-08-06 05:56:00,67.5,64.1,29.89,SSE,165,2.0,10.0,89,0.00,,,0.00,Wunderground v.1.15,2013-08-06 09:56:00,
2013-08-06 05:58:00,67.5,64.1,29.89,SSE,165,2.0,10.0,89,0.00,,,0.00,Wunderground v.1.15,2013-08-06 09:58:00,
2013-08-06 06:00:00,67.5,64.1,29.90,SSE,165,1.0,10.0,89,0.00,,,0.00,Wunderground v.1.15,2013-08-06 10:00:00,
2013-08-06 06:02:00,67.5,64.1,29.90,SSE,165,1.0,10.0,89,0.00,,,0.00,Wunderground v.1.15,2013-08-06 10:02:00,
2013-08-06 06:04:00,67.5,64.1,29.90,SSE,165,1.0,10.0,89,0.00,,,0.00,Wunderground v.1.15,2013-08-06 10:04:00,
2013-08-06 06:06:00,67.4,64.0,29.90,SSE,165,1.0,10.0,89,0.00,,,0.00,Wunderground v.1.15,2013-08-06 10:06:00,
2013-08-06 06:08:00,67.4,64.0,29.90,SSE,165,1.0,10.0,89,0.00,,,0.00,Wunderground v.1.15,2013-08-06 10:08:00,
2013-08-06 06:12:00,67.5,64.1,29.90,SSE,165,1.0,3.0,89,0.00,,,0.00,Wunderground v.1.15,2013-08-06 10:12:00,
2013-08-06 06:14:00,67.5,64.1,29.89,SSE,160,1.0,3.0,89,0.00,,,0.00,Wunderground v.1.15,2013-08-06 10:14:00,
2013-08-06 06:16:00,67.5,64.1,29.90,SSE,160,2.0,3.0,89,0.00,,,0.00,Wunderground v.1.15,2013-08-06 10:16:00,
2013-08-06 06:22:00,67.6,64.2,29.91,SSE,160,2.0,2.0,89,0.00,,,0.00,Wunderground v.1.15,2013-08-06 10:22:00,
2013-08-06 06:24:00,67.6,64.2,29.90,SSE,160,2.0,2.0,89,0.00,,,0.00,Wunderground v.1.15,2013-08-06 10:24:00,
2013-08-06 06:26:00,67.6,64.2,29.90,SSE,160,2.0,3.0,89,0.00,,,0.00,Wunderground v.1.15,2013-08-06 10:26:00,
2013-08-06 06:28:00,67.6,64.2,29.90,SSE,160,2.0,3.0,89,0.00,,,0.00,Wunderground v.1.15,2013-08-06 10:28:00,
2013-08-06 06:30:00,67.6,64.2,29.90,SSE,152,2.0,2.0,89,0.00,,,0.00,Wunderground v.1.15,2013-08-06 10:30:00,
2013-08-06 06:32:00,67.7,64.3,29.90,SSE,152,2.0,3.0,89,0.00,,,0.00,Wunderground v.1.15,2013-08-06 10:32:00,
2013-08-06 06:34:00,67.7,64.3,29.91,SSE,152,2.0,3.0,89,0.00,,,0.00,Wunderground v.1.15,2013-08-06 10:34:00,
2013-08-06 06:38:00,67.7,64.3,29.91,SSE,151,3.0,3.0,89,0.00,,,0.00,Wunderground v.1.15,2013-08-06 10:38:00,
2013-08-06 06:40:00,67.7,64.3,29.91,SSE,151,3.0,3.0,89,0.00,,,0.00,Wunderground v.1.15,2013-08-06 10:40:00,
2013-08-06 06:44:00,67.8,64.1,29.91,SSE,151,3.0,3.0,88,0.00,,,0.00,Wunderground v.1.15,2013-08-06 10:44:00,
2013-08-06 06:46:00,67.8,64.1,29.91,SSE,151,3.0,3.0,88,0.00,,,0.00,Wunderground v.1.15,2013-08-06 10:46:00,
2013-08-06 06:48:00,67.8,64.1,29.90,SSE,148,3.0,3.0,88,0.00,,,0.00,Wunderground v.1.15,2013-08-06 10:48:00,
2013-08-06 06:52:00,67.8,64.1,29.91,SSE,148,2.0,3.0,88,0.00,,,0.00,Wunderground v.1.15,2013-08-06 10:52:00,
2013-08-06 06:54:00,67.8,64.1,29.91,SSE,148,2.0,3.0,88,0.00,,,0.00,Wunderground v.1.15,2013-08-06 10:54:00,
2013-08-06 06:58:00,67.8,64.1,29.91,SSE,148,1.0,3.0,88,0.00,,,0.00,Wunderground v.1.15,2013-08-06 10:58:00,
2013-08-06 07:00:00,67.8,64.1,29.91,SSE,148,1.0,3.0,88,0.00,,,0.00,Wunderground v.1.15,2013-08-06 11:00:00,
2013-08-06 07:04:00,67.8,64.1,29.91,SE,143,1.0,4.0,88,0.00,,,0.00,Wunderground v.1.15,2013-08-06 11:04:00,
2013-08-06 07:06:00,67.9,64.2,29.91,SE,143,2.0,4.0,88,0.00,,,0.00,Wunderground v.1.15,2013-08-06 11:06:00,
2013-08-06 07:10:00,67.9,64.2,29.92,SE,143,2.0,2.0,88,0.00,,,0.00,Wunderground v.1.15,2013-08-06 11:10:00,
2013-08-06 07:12:00,67.9,64.2,29.92,SE,143,2.0,3.0,88,0.00,,,0.00,Wunderground v.1.15,2013-08-06 11:12:00,
2013-08-06 07:14:00,68.0,64.3,29.92,SE,143,2.0,3.0,88,0.00,,,0.00,Wunderground v.1.15,2013-08-06 11:14:00,
2013-08-06 07:18:00,68.0,64.6,29.92,SE,143,2.0,3.0,89,0.00,,,0.00,Wunderground v.1.15,2013-08-06 11:18:00,
2013-08-06 07:20:00,68.0,64.6,29.92,SE,143,2.0,3.0,89,0.00,,,0.00,Wunderground v.1.15,2013-08-06 11:20:00,
2013-08-06 07:22:00,68.0,64.6,29.92,SE,143,2.0,3.0,89,0.00,,,0.00,Wunderground v.1.15,2013-08-06 11:22:00,
2013-08-06 07:26:00,68.1,64.7,29.92,SE,143,2.0,3.0,89,0.00,,,0.00,Wunderground v.1.15,2013-08-06 11:26:00,
2013-08-06 07:28:00,68.0,64.6,29.92,SE,143,2.0,3.0,89,0.00,,,0.00,Wunderground v.1.15,2013-08-06 11:28:00,
2013-08-06 07:30:00,68.0,64.6,29.92,SE,143,2.0,2.0,89,0.00,,,0.00,Wunderground v.1.15,2013-08-06 11:30:00,
2013-08-06 07:32:00,68.0,64.3,29.92,SE,145,2.0,3.0,88,0.00,,,0.00,Wunderground v.1.15,2013-08-06 11:32:00,
2013-08-06 07:36:00,68.1,64.4,29.91,SE,145,1.0,3.0,88,0.00,,,0.00,Wunderground v.1.15,2013-08-06 11:36:00,
2013-08-06 07:38:00,68.1,64.7,29.91,SE,145,1.0,3.0,89,0.00,,,0.00,Wunderground v.1.15,2013-08-06 11:38:00,
2013-08-06 07:42:00,68.1,64.7,29.91,SE,145,1.0,3.0,89,0.00,,,0.00,Wunderground v.1.15,2013-08-06 11:42:00,
2013-08-06 07:44:00,68.1,64.7,29.91,SE,145,1.0,3.0,89,0.00,,,0.00,Wunderground v.1.15,2013-08-06 11:44:00,
2013-08-06 07:46:00,68.1,64.7,29.91,SE,145,1.0,3.0,89,0.00,,,0.00,Wunderground v.1.15,2013-08-06 11:46:00,
2013-08-06 07:50:00,68.2,64.8,29.91,SE,145,0.0,3.0,89,0.00,,,0.00,Wunderground v.1.15,2013-08-06 11:50:00,
2013-08-06 07:52:00,68.2,64.8,29.91,SE,145,0.0,3.0,89,0.00,,,0.00,Wunderground v.1.15,2013-08-06 11:52:00,
2013-08-06 07:54:00,68.3,64.9,29.91,SE,145,0.0,3.0,89,0.00,,,0.00,Wunderground v.1.15,2013-08-06 11:54:00,
2013-08-06 07:56:00,68.3,64.9,29.91,SE,145,0.0,3.0,89,0.00,,,0.00,Wunderground v.1.15,2013-08-06 11:56:00,
2013-08-06 08:00:00,68.4,65.0,29.91,SE,145,0.0,3.0,89,0.00,,,0.00,Wunderground v.1.15,2013-08-06 12:00:00,
2013-08-06 08:02:00,68.5,64.8,29.91,SE,145,0.0,3.0,88,0.00,,,0.00,Wunderground v.1.15,2013-08-06 12:02:00,
2013-08-06 08:06:00,68.5,64.8,29.91,SE,145,0.0,3.0,88,0.00,,,0.00,Wunderground v.1.15,2013-08-06 12:06:00,
2013-08-06 08:08:00,68.6,65.2,29.91,SE,145,0.0,3.0,89,0.00,,,0.00,Wunderground v.1.15,2013-08-06 12:08:00,
2013-08-06 08:12:00,68.6,65.2,29.91,SE,145,1.0,3.0,89,0.00,,,0.00,Wunderground v.1.15,2013-08-06 12:12:00,
2013-08-06 08:14:00,68.7,65.3,29.91,SE,145,1.0,3.0,89,0.00,,,0.00,Wunderground v.1.15,2013-08-06 12:14:00,
2013-08-06 08:20:00,68.9,65.2,29.91,SE,145,0.0,3.0,88,0.00,,,0.00,Wunderground v.1.15,2013-08-06 12:20:00,
2013-08-06 08:22:00,69.0,65.6,29.92,SE,145,0.0,3.0,89,0.00,,,0.00,Wunderground v.1.15,2013-08-06 12:22:00,
2013-08-06 08:26:00,69.2,65.5,29.92,SE,145,0.0,3.0,88,0.00,,,0.00,Wunderground v.1.15,2013-08-06 12:26:00,
2013-08-06 08:28:00,69.2,65.5,29.92,SE,145,0.0,3.0,88,0.00,,,0.00,Wunderground v.1.15,2013-08-06 12:28:00,
2013-08-06 08:32:00,69.3,65.3,29.92,SE,145,1.0,3.0,87,0.00,,,0.00,Wunderground v.1.15,2013-08-06 12:32:00,
2013-08-06 08:34:00,69.4,65.4,29.92,SE,144,1.0,3.0,87,0.00,,,0.00,Wunderground v.1.15,2013-08-06 12:34:00,
2013-08-06 08:38:00,69.6,65.9,29.92,SE,144,1.0,3.0,88,0.00,,,0.00,Wunderground v.1.15,2013-08-06 12:38:00,
2013-08-06 08:44:00,69.8,65.8,29.92,SE,141,1.0,3.0,87,0.00,,,0.00,Wunderground v.1.15,2013-08-06 12:44:00,
2013-08-06 08:48:00,69.9,65.9,29.92,SSE,148,2.0,3.0,87,0.00,,,0.00,Wunderground v.1.15,2013-08-06 12:48:00,
2013-08-06 08:52:00,69.9,65.9,29.92,SSE,148,2.0,3.0,87,0.00,,,0.00,Wunderground v.1.15,2013-08-06 12:52:00,
2013-08-06 08:58:00,70.0,66.0,29.92,SSE,148,2.0,3.0,87,0.00,,,0.00,Wunderground v.1.15,2013-08-06 12:58:00,
2013-08-06 09:04:00,70.2,66.1,29.92,SSE,147,1.0,3.0,87,0.00,,,0.00,Wunderground v.1.15,2013-08-06 13:04:00,
2013-08-06 09:10:00,70.6,66.2,29.92,SE,127,1.0,3.0,86,0.00,,,0.00,Wunderground v.1.15,2013-08-06 13:10:00,
2013-08-06 09:12:00,70.7,66.3,29.92,SE,127,1.0,3.0,86,0.00,,,0.00,Wunderground v.1.15,2013-08-06 13:12:00,
2013-08-06 09:14:00,70.8,66.4,29.92,SE,127,1.0,3.0,86,0.00,,,0.00,Wunderground v.1.15,2013-08-06 13:14:00,
2013-08-06 09:16:00,70.9,66.5,29.92,SE,127,0.0,3.0,86,0.00,,,0.00,Wunderground v.1.15,2013-08-06 13:16:00,
2013-08-06 09:18:00,71.0,66.6,29.92,ESE,112,0.0,3.0,86,0.00,,,0.00,Wunderground v.1.15,2013-08-06 13:18:00,
2013-08-06 09:20:00,71.0,66.6,29.92,ESE,111,1.0,1.0,86,0.00,,,0.00,Wunderground v.1.15,2013-08-06 13:20:00,
2013-08-06 09:22:00,71.1,66.7,29.92,ESE,111,1.0,3.0,86,0.00,,,0.00,Wunderground v.1.15,2013-08-06 13:22:00,
2013-08-06 09:24:00,71.2,66.5,29.92,ESE,111,1.0,3.0,85,0.00,,,0.00,Wunderground v.1.15,2013-08-06 13:24:00,
2013-08-06 09:28:00,71.3,66.9,29.92,ESE,111,1.0,3.0,86,0.00,,,0.00,Wunderground v.1.15,2013-08-06 13:28:00,
2013-08-06 09:30:00,71.4,66.7,29.92,ESE,111,0.0,3.0,85,0.00,,,0.00,Wunderground v.1.15,2013-08-06 13:30:00,
2013-08-06 09:32:00,71.5,66.8,29.92,ESE,112,0.0,3.0,85,0.00,,,0.00,Wunderground v.1.15,2013-08-06 13:32:00,
2013-08-06 09:36:00,71.7,66.9,29.92,ESE,112,0.0,3.0,85,0.00,,,0.00,Wunderground v.1.15,2013-08-06 13:36:00,
2013-08-06 09:42:00,72.1,67.3,29.92,ESE,109,0.0,3.0,85,0.00,,,0.00,Wunderground v.1.15,2013-08-06 13:42:00,
2013-08-06 09:44:00,72.2,67.1,29.92,SE,146,0.0,3.0,84,0.00,,,0.00,Wunderground v.1.15,2013-08-06 13:44:00,
2013-08-06 09:48:00,72.2,67.1,29.92,SE,141,1.0,3.0,84,0.00,,,0.00,Wunderground v.1.15,2013-08-06 13:48:00,
2013-08-06 09:50:00,72.1,67.0,29.92,SE,145,1.0,3.0,84,0.00,,,0.00,Wunderground v.1.15,2013-08-06 13:50:00,
2013-08-06 09:52:00,72.1,67.0,29.92,SSE,147,2.0,5.0,84,0.00,,,0.00,Wunderground v.1.15,2013-08-06 13:52:00,
2013-08-06 09:54:00,72.0,66.6,29.92,SE,144,3.0,5.0,83,0.00,,,0.00,Wunderground v.1.15,2013-08-06 13:54:00,
2013-08-06 09:56:00,72.0,66.9,29.92,SE,145,3.0,6.0,84,0.00,,,0.00,Wunderground v.1.15,2013-08-06 13:56:00,
2013-08-06 09:58:00,71.9,66.8,29.92,SE,140,3.0,6.0,84,0.00,,,0.00,Wunderground v.1.15,2013-08-06 13:58:00,
2013-08-06 10:00:00,72.0,66.9,29.92,SSE,150,3.0,4.0,84,0.00,,,0.00,Wunderground v.1.15,2013-08-06 14:00:00,
2013-08-06 10:04:00,72.0,66.6,29.92,SE,145,4.0,5.0,83,0.00,,,0.00,Wunderground v.1.15,2013-08-06 14:04:00,
2013-08-06 10:06:00,72.0,66.6,29.92,South,182,4.0,5.0,83,0.00,,,0.00,Wunderground v.1.15,2013-08-06 14:06:00,
2013-08-06 10:08:00,72.0,66.6,29.92,SSE,152,4.0,6.0,83,0.00,,,0.00,Wunderground v.1.15,2013-08-06 14:08:00,
2013-08-06 10:12:00,71.9,66.8,29.92,SE,145,4.0,4.0,84,0.00,,,0.00,Wunderground v.1.15,2013-08-06 14:12:00,
2013-08-06 10:14:00,71.9,66.8,29.92,SSE,156,4.0,5.0,84,0.00,,,0.00,Wunderground v.1.15,2013-08-06 14:14:00,
2013-08-06 10:18:00,72.0,66.6,29.92,SSE,152,4.0,5.0,83,0.00,,,0.00,Wunderground v.1.15,2013-08-06 14:18:00,
2013-08-06 10:20:00,72.1,67.0,29.91,SSE,158,4.0,4.0,84,0.00,,,0.00,Wunderground v.1.15,2013-08-06 14:20:00,
2013-08-06 10:22:00,72.1,66.6,29.92,SSE,159,5.0,5.0,83,0.00,,,0.00,Wunderground v.1.15,2013-08-06 14:22:00,
2013-08-06 10:24:00,72.1,66.6,29.92,SSE,152,5.0,5.0,83,0.00,,,0.00,Wunderground v.1.15,2013-08-06 14:24:00,
2013-08-06 10:26:00,72.0,66.6,29.92,South,179,5.0,5.0,83,0.00,,,0.00,Wunderground v.1.15,2013-08-06 14:26:00,
2013-08-06 10:30:00,72.1,67.0,29.92,South,175,5.0,7.0,84,0.00,,,0.00,Wunderground v.1.15,2013-08-06 14:30:00,
2013-08-06 10:32:00,72.0,66.6,29.91,SSW,193,5.0,7.0,83,0.00,,,0.00,Wunderground v.1.15,2013-08-06 14:32:00,
2013-08-06 10:38:00,71.9,66.8,29.92,SE,143,5.0,7.0,84,0.00,,,0.00,Wunderground v.1.15,2013-08-06 14:38:00,
2013-08-06 10:44:00,71.9,66.8,29.92,SSW,208,5.0,7.0,84,0.00,,,0.00,Wunderground v.1.15,2013-08-06 14:44:00,
2013-08-06 10:46:00,71.9,67.1,29.92,SSW,204,5.0,7.0,85,0.00,,,0.00,Wunderground v.1.15,2013-08-06 14:46:00,
2013-08-06 10:50:00,71.9,66.8,29.92,South,182,5.0,5.0,84,0.00,,,0.00,Wunderground v.1.15,2013-08-06 14:50:00,
2013-08-06 10:52:00,71.9,66.8,29.92,South,173,5.0,5.0,84,0.00,,,0.00,Wunderground v.1.15,2013-08-06 14:52:00,
2013-08-06 10:54:00,72.0,66.9,29.92,SSE,155,4.0,6.0,84,0.00,,,0.00,Wunderground v.1.15,2013-08-06 14:54:00,
2013-08-06 10:58:00,71.9,66.8,29.92,SSE,156,5.0,6.0,84,0.00,,,0.00,Wunderground v.1.15,2013-08-06 14:58:00,
2013-08-06 11:00:00,71.9,66.8,29.92,South,183,5.0,5.0,84,0.00,,,0.00,Wunderground v.1.15,2013-08-06 15:00:00,
2013-08-06 11:04:00,72.1,67.3,29.92,South,176,4.0,5.0,85,0.00,,,0.00,Wunderground v.1.15,2013-08-06 15:04:00,
2013-08-06 11:08:00,72.5,68.1,29.92,SW,217,3.0,5.0,86,0.00,,,0.00,Wunderground v.1.15,2013-08-06 15:08:00,
2013-08-06 11:10:00,72.5,67.7,29.92,SSW,206,3.0,7.0,85,0.00,,,0.00,Wunderground v.1.15,2013-08-06 15:10:00,
2013-08-06 11:12:00,72.5,67.7,29.92,SSW,204,4.0,7.0,85,0.00,,,0.00,Wunderground v.1.15,2013-08-06 15:12:00,
2013-08-06 11:16:00,72.4,67.6,29.92,SSE,161,5.0,11.0,85,0.00,,,0.00,Wunderground v.1.15,2013-08-06 15:16:00,
2013-08-06 11:18:00,72.4,68.0,29.92,South,175,6.0,11.0,86,0.00,,,0.00,Wunderground v.1.15,2013-08-06 15:18:00,
2013-08-06 11:20:00,72.6,68.2,29.92,SW,222,5.0,5.0,86,0.00,,,0.00,Wunderground v.1.15,2013-08-06 15:20:00,
2013-08-06 11:22:00,72.8,68.0,29.92,SW,214,4.0,5.0,85,0.00,,,0.00,Wunderground v.1.15,2013-08-06 15:22:00,
2013-08-06 11:24:00,72.9,68.1,29.92,SSW,207,4.0,5.0,85,0.00,,,0.00,Wunderground v.1.15,2013-08-06 15:24:00,
2013-08-06 11:30:00,73.2,68.4,29.92,South,174,3.0,3.0,85,0.00,,,0.00,Wunderground v.1.15,2013-08-06 15:30:00,
2013-08-06 11:32:00,73.2,68.4,29.92,South,169,3.0,5.0,85,0.00,,,0.00,Wunderground v.1.15,2013-08-06 15:32:00,
2013-08-06 11:36:00,73.1,68.3,29.92,SSE,154,4.0,5.0,85,0.00,,,0.00,Wunderground v.1.15,2013-08-06 15:36:00,
2013-08-06 11:38:00,73.1,68.3,29.92,SSE,158,4.0,5.0,85,0.00,,,0.00,Wunderground v.1.15,2013-08-06 15:38:00,
2013-08-06 11:40:00,73.1,68.0,29.92,South,176,4.0,4.0,84,0.00,,,0.00,Wunderground v.1.15,2013-08-06 15:40:00,
2013-08-06 11:44:00,73.3,68.5,29.93,SSE,149,4.0,6.0,85,0.00,,,0.00,Wunderground v.1.15,2013-08-06 15:44:00,
2013-08-06 11:46:00,73.4,68.6,29.93,South,171,4.0,7.0,85,0.00,,,0.00,Wunderground v.1.15,2013-08-06 15:46:00,
2013-08-06 11:50:00,73.3,68.2,29.93,South,174,4.0,4.0,84,0.00,,,0.00,Wunderground v.1.15,2013-08-06 15:50:00,
2013-08-06 11:52:00,73.4,68.6,29.93,SSE,148,4.0,7.0,85,0.00,,,0.00,Wunderground v.1.15,2013-08-06 15:52:00,
2013-08-06 11:56:00,73.6,69.2,29.92,South,170,4.0,7.0,86,0.00,,,0.00,Wunderground v.1.15,2013-08-06 15:56:00,
2013-08-06 11:58:00,73.8,69.3,29.92,SSE,151,4.0,7.0,86,0.00,,,0.00,Wunderground v.1.15,2013-08-06 15:58:00,
2013-08-06 12:00:00,74.0,69.2,29.92,SSE,164,4.0,4.0,85,0.00,,,0.00,Wunderground v.1.15,2013-08-06 16:00:00,
2013-08-06 12:02:00,74.3,69.1,29.92,SSE,168,4.0,4.0,84,0.00,,,0.00,Wunderground v.1.15,2013-08-06 16:02:00,
2013-08-06 12:04:00,74.4,69.2,29.92,SSW,197,4.0,7.0,84,0.00,,,0.00,Wunderground v.1.15,2013-08-06 16:04:00,
2013-08-06 12:08:00,74.1,68.6,29.92,SSW,194,5.0,7.0,83,0.00,,,0.00,Wunderground v.1.15,2013-08-06 16:08:00,
2013-08-06 12:10:00,74.1,69.3,29.92,South,171,5.0,5.0,85,0.00,,,0.00,Wunderground v.1.15,2013-08-06 16:10:00,
2013-08-06 12:16:00,74.4,69.2,29.92,SSE,168,4.0,5.0,84,0.00,,,0.00,Wunderground v.1.15,2013-08-06 16:16:00,
2013-08-06 12:20:00,74.8,69.6,29.92,SSE,150,3.0,3.0,84,0.00,,,0.00,Wunderground v.1.15,2013-08-06 16:20:00,
2013-08-06 12:22:00,74.9,69.4,29.91,SSE,147,3.0,3.0,83,0.00,,,0.00,Wunderground v.1.15,2013-08-06 16:22:00,
2013-08-06 12:24:00,75.1,69.6,29.91,South,180,3.0,3.0,83,0.00,,,0.00,Wunderground v.1.15,2013-08-06 16:24:00,
2013-08-06 12:28:00,75.4,69.5,29.92,South,189,3.0,4.0,82,0.00,,,0.00,Wunderground v.1.15,2013-08-06 16:28:00,
2013-08-06 12:32:00,75.5,70.3,29.91,South,181,3.0,5.0,84,0.00,,,0.00,Wunderground v.1.15,2013-08-06 16:32:00,
2013-08-06 12:36:00,75.4,69.9,29.91,SSW,204,4.0,5.0,83,0.00,,,0.00,Wunderground v.1.15,2013-08-06 16:36:00,
2013-08-06 12:38:00,75.3,69.8,29.91,SSW,198,4.0,5.0,83,0.00,,,0.00,Wunderground v.1.15,2013-08-06 16:38:00,
2013-08-06 12:42:00,75.5,70.0,29.91,SW,233,4.0,4.0,83,0.00,,,0.00,Wunderground v.1.15,2013-08-06 16:42:00,
2013-08-06 12:44:00,75.3,69.4,29.91,SSW,210,5.0,5.0,82,0.00,,,0.00,Wunderground v.1.15,2013-08-06 16:44:00,
2013-08-06 12:48:00,75.2,69.7,29.91,West,274,4.0,5.0,83,0.00,,,0.00,Wunderground v.1.15,2013-08-06 16:48:00,
2013-08-06 12:54:00,75.2,69.7,29.91,South,179,3.0,5.0,83,0.00,,,0.00,Wunderground v.1.15,2013-08-06 16:54:00,
2013-08-06 12:56:00,75.3,70.1,29.90,South,183,3.0,5.0,84,0.00,,,0.00,Wunderground v.1.15,2013-08-06 16:56:00,
2013-08-06 13:00:00,75.3,69.8,29.90,South,169,3.0,3.0,83,0.00,,,0.00,Wunderground v.1.15,2013-08-06 17:00:00,
2013-08-06 13:02:00,75.4,70.2,29.90,WSW,241,3.0,4.0,84,0.00,,,0.00,Wunderground v.1.15,2013-08-06 17:02:00,
2013-08-06 13:06:00,75.3,69.8,29.90,SW,226,2.0,5.0,83,0.00,,,0.00,Wunderground v.1.15,2013-08-06 17:06:00,
2013-08-06 13:08:00,75.4,70.2,29.90,SW,226,2.0,5.0,84,0.00,,,0.00,Wunderground v.1.15,2013-08-06 17:08:00,
2013-08-06 13:12:00,75.5,70.0,29.90,SW,223,3.0,4.0,83,0.00,,,0.00,Wunderground v.1.15,2013-08-06 17:12:00,
2013-08-06 13:14:00,75.5,70.0,29.90,SW,224,3.0,4.0,83,0.00,,,0.00,Wunderground v.1.15,2013-08-06 17:14:00,
2013-08-06 13:16:00,75.5,70.0,29.90,SW,224,3.0,4.0,83,0.00,,,0.00,Wunderground v.1.15,2013-08-06 17:16:00,
2013-08-06 13:18:00,75.5,70.0,29.90,SW,225,3.0,4.0,83,0.00,,,0.00,Wunderground v.1.15,2013-08-06 17:18:00,
2013-08-06 13:20:00,75.6,70.4,29.90,SW,220,2.0,5.0,84,0.00,,,0.00,Wunderground v.1.15,2013-08-06 17:20:00,
2013-08-06 13:22:00,75.6,70.1,29.90,SW,218,2.0,5.0,83,0.00,,,0.00,Wunderground v.1.15,2013-08-06 17:22:00,
2013-08-06 13:26:00,75.5,70.0,29.90,SSW,210,2.0,5.0,83,0.00,,,0.00,Wunderground v.1.15,2013-08-06 17:26:00,
2013-08-06 13:28:00,75.5,70.0,29.90,SSW,200,3.0,5.0,83,0.00,,,0.00,Wunderground v.1.15,2013-08-06 17:28:00,
2013-08-06 13:30:00,75.5,70.3,29.91,South,183,4.0,4.0,84,0.00,,,0.00,Wunderground v.1.15,2013-08-06 17:30:00,
2013-08-06 13:32:00,75.5,70.3,29.90,SW,215,4.0,5.0,84,0.00,,,0.00,Wunderground v.1.15,2013-08-06 17:32:00,
2013-08-06 13:34:00,75.4,70.2,29.91,SSW,197,4.0,5.0,84,0.00,,,0.00,Wunderground v.1.15,2013-08-06 17:34:00,
2013-08-06 13:36:00,75.4,70.6,29.91,South,191,4.0,5.0,85,0.00,,,0.00,Wunderground v.1.15,2013-08-06 17:36:00,
2013-08-06 13:38:00,75.5,70.3,29.90,South,172,4.0,5.0,84,0.00,,,0.00,Wunderground v.1.15,2013-08-06 17:38:00,
2013-08-06 13:44:00,75.4,70.2,29.91,WSW,240,4.0,8.0,84,0.00,,,0.00,Wunderground v.1.15,2013-08-06 17:44:00,
2013-08-06 13:46:00,75.4,70.2,29.91,SSW,210,5.0,8.0,84,0.00,,,0.00,Wunderground v.1.15,2013-08-06 17:46:00,
2013-08-06 13:52:00,75.3,70.1,29.91,SW,224,5.0,5.0,84,0.00,,,0.00,Wunderground v.1.15,2013-08-06 17:52:00,
2013-08-06 13:56:00,75.4,70.6,29.91,SSW,197,4.0,5.0,85,0.00,,,0.00,Wunderground v.1.15,2013-08-06 17:56:00,
2013-08-06 13:58:00,75.4,70.6,29.91,SSW,197,3.0,5.0,85,0.00,,,0.00,Wunderground v.1.15,2013-08-06 17:58:00,
2013-08-06 14:02:00,75.4,70.6,29.91,SSW,198,2.0,3.0,85,0.00,,,0.00,Wunderground v.1.15,2013-08-06 18:02:00,
2013-08-06 14:04:00,75.4,70.6,29.91,South,179,2.0,3.0,85,0.00,,,0.00,Wunderground v.1.15,2013-08-06 18:04:00,
2013-08-06 14:08:00,75.3,70.1,29.91,South,183,2.0,4.0,84,0.00,,,0.00,Wunderground v.1.15,2013-08-06 18:08:00,
2013-08-06 14:10:00,75.3,70.1,29.91,SSW,203,3.0,4.0,84,0.00,,,0.00,Wunderground v.1.15,2013-08-06 18:10:00,
2013-08-06 14:12:00,75.5,70.7,29.91,SSW,194,3.0,4.0,85,0.00,,,0.00,Wunderground v.1.15,2013-08-06 18:12:00,
2013-08-06 14:16:00,76.1,71.3,29.91,SW,231,3.0,4.0,85,0.00,,,0.00,Wunderground v.1.15,2013-08-06 18:16:00,
2013-08-06 14:18:00,76.1,70.6,29.91,SSE,168,3.0,4.0,83,0.00,,,0.00,Wunderground v.1.15,2013-08-06 18:18:00,
2013-08-06 14:20:00,76.2,71.0,29.91,SSE,168,3.0,3.0,84,0.00,,,0.00,Wunderground v.1.15,2013-08-06 18:20:00,
2013-08-06 14:24:00,76.5,70.9,29.91,SW,217,2.0,5.0,83,0.00,,,0.00,Wunderground v.1.15,2013-08-06 18:24:00,
2013-08-06 14:28:00,76.6,70.7,29.90,West,278,2.0,5.0,82,0.00,,,0.00,Wunderground v.1.15,2013-08-06 18:28:00,
2013-08-06 14:32:00,76.4,70.5,29.91,SW,234,3.0,4.0,82,0.00,,,0.00,Wunderground v.1.15,2013-08-06 18:32:00,
2013-08-06 14:36:00,76.5,70.9,29.90,SW,231,3.0,4.0,83,0.00,,,0.00,Wunderground v.1.15,2013-08-06 18:36:00,
2013-08-06 14:40:00,76.5,70.6,29.90,SW,231,3.0,3.0,82,0.00,,,0.00,Wunderground v.1.15,2013-08-06 18:40:00,
2013-08-06 14:42:00,76.6,70.7,29.90,SW,221,3.0,3.0,82,0.00,,,0.00,Wunderground v.1.15,2013-08-06 18:42:00,
2013-08-06 14:44:00,76.6,70.7,29.90,SW,221,2.0,3.0,82,0.00,,,0.00,Wunderground v.1.15,2013-08-06 18:44:00,
2013-08-06 14:48:00,76.7,70.8,29.90,SSW,198,2.0,3.0,82,0.00,,,0.00,Wunderground v.1.15,2013-08-06 18:48:00,
2013-08-06 14:52:00,76.7,70.4,29.90,SSW,199,2.0,3.0,81,0.00,,,0.00,Wunderground v.1.15,2013-08-06 18:52:00,
2013-08-06 14:54:00,76.8,71.2,29.90,SSW,199,2.0,3.0,83,0.00,,,0.00,Wunderground v.1.15,2013-08-06 18:54:00,
2013-08-06 14:56:00,77.0,71.1,29.90,SSW,199,1.0,3.0,82,0.00,,,0.00,Wunderground v.1.15,2013-08-06 18:56:00,
2013-08-06 14:58:00,77.1,70.8,29.90,SSW,199,1.0,3.0,81,0.00,,,0.00,Wunderground v.1.15,2013-08-06 18:58:00,
2013-08-06 15:00:00,77.2,70.9,29.90,SSW,199,1.0,1.0,81,0.00,,,0.00,Wunderground v.1.15,2013-08-06 19:00:00,
2013-08-06 15:02:00,77.3,71.0,29.90,SSW,199,0.0,3.0,81,0.00,,,0.00,Wunderground v.1.15,2013-08-06 19:02:00,
2013-08-06 15:06:00,77.7,71.0,29.89,SSW,199,0.0,3.0,80,0.00,,,0.00,Wunderground v.1.15,2013-08-06 19:06:00,
2013-08-06 15:08:00,77.9,71.6,29.90,SSW,199,0.0,3.0,81,0.00,,,0.00,Wunderground v.1.15,2013-08-06 19:08:00,
2013-08-06 15:10:00,78.1,71.8,29.89,SSW,199,0.0,3.0,81,0.00,,,0.00,Wunderground v.1.15,2013-08-06 19:10:00,
2013-08-06 15:12:00,78.4,71.3,29.89,SSW,199,0.0,3.0,79,0.00,,,0.00,Wunderground v.1.15,2013-08-06 19:12:00,
2013-08-06 15:14:00,78.4,71.3,29.89,SSW,199,0.0,3.0,79,0.00,,,0.00,Wunderground v.1.15,2013-08-06 19:14:00,
2013-08-06 15:18:00,77.8,70.8,29.89,SSW,206,1.0,5.0,79,0.00,,,0.00,Wunderground v.1.15,2013-08-06 19:18:00,
2013-08-06 15:20:00,77.6,70.9,29.89,SSW,210,2.0,3.0,80,0.00,,,0.00,Wunderground v.1.15,2013-08-06 19:20:00,
2013-08-06 15:24:00,77.3,71.0,29.90,South,188,2.0,3.0,81,0.00,,,0.00,Wunderground v.1.15,2013-08-06 19:24:00,
2013-08-06 15:26:00,77.2,70.9,29.89,South,188,2.0,3.0,81,0.00,,,0.00,Wunderground v.1.15,2013-08-06 19:26:00,
2013-08-06 15:28:00,77.2,70.9,29.90,SSW,208,1.0,3.0,81,0.00,,,0.00,Wunderground v.1.15,2013-08-06 19:28:00,
2013-08-06 15:32:00,77.1,71.2,29.89,South,189,1.0,3.0,82,0.00,,,0.00,Wunderground v.1.15,2013-08-06 19:32:00,
2013-08-06 15:34:00,77.1,71.2,29.89,SSE,162,1.0,3.0,82,0.00,,,0.00,Wunderground v.1.15,2013-08-06 19:34:00,
2013-08-06 15:36:00,77.2,71.6,29.89,South,171,1.0,3.0,83,0.00,,,0.00,Wunderground v.1.15,2013-08-06 19:36:00,
2013-08-06 15:40:00,77.2,71.3,29.89,SSE,157,1.0,3.0,82,0.00,,,0.00,Wunderground v.1.15,2013-08-06 19:40:00,
2013-08-06 15:42:00,77.2,71.6,29.89,ESE,118,2.0,3.0,83,0.00,,,0.00,Wunderground v.1.15,2013-08-06 19:42:00,
2013-08-06 15:46:00,77.3,71.4,29.89,SSE,156,1.0,3.0,82,0.00,,,0.00,Wunderground v.1.15,2013-08-06 19:46:00,
2013-08-06 15:48:00,77.2,71.3,29.89,SE,145,2.0,3.0,82,0.00,,,0.00,Wunderground v.1.15,2013-08-06 19:48:00,
2013-08-06 15:52:00,77.1,71.2,29.89,SE,145,2.0,3.0,82,0.00,,,0.00,Wunderground v.1.15,2013-08-06 19:52:00,
2013-08-06 15:54:00,77.0,71.4,29.89,SE,145,2.0,3.0,83,0.00,,,0.00,Wunderground v.1.15,2013-08-06 19:54:00,
2013-08-06 15:56:00,77.0,71.4,29.89,SE,141,2.0,3.0,83,0.00,,,0.00,Wunderground v.1.15,2013-08-06 19:56:00,
2013-08-06 16:02:00,77.1,71.5,29.89,SW,218,1.0,3.0,83,0.00,,,0.00,Wunderground v.1.15,2013-08-06 20:02:00,
2013-08-06 16:04:00,77.1,71.5,29.89,SSW,199,2.0,5.0,83,0.00,,,0.00,Wunderground v.1.15,2013-08-06 20:04:00,
2013-08-06 16:06:00,77.0,71.1,29.89,SSW,201,2.0,5.0,82,0.00,,,0.00,Wunderground v.1.15,2013-08-06 20:06:00,
2013-08-06 16:08:00,77.1,71.5,29.89,South,173,3.0,5.0,83,0.00,,,0.00,Wunderground v.1.15,2013-08-06 20:08:00,
2013-08-06 16:12:00,77.2,71.3,29.89,SSE,161,3.0,3.0,82,0.00,,,0.00,Wunderground v.1.15,2013-08-06 20:12:00,
2013-08-06 16:16:00,77.4,71.5,29.89,SE,129,2.0,3.0,82,0.00,,,0.00,Wunderground v.1.15,2013-08-06 20:16:00,
2013-08-06 16:22:00,77.7,72.1,29.89,SE,142,2.0,3.0,83,0.00,,,0.00,Wunderground v.1.15,2013-08-06 20:22:00,
2013-08-06 16:24:00,77.8,71.9,29.89,SE,135,2.0,3.0,82,0.00,,,0.00,Wunderground v.1.15,2013-08-06 20:24:00,
2013-08-06 16:26:00,77.9,72.0,29.89,SE,135,1.0,3.0,82,0.00,,,0.00,Wunderground v.1.15,2013-08-06 20:26:00,
2013-08-06 16:28:00,78.1,72.5,29.89,SE,135,1.0,3.0,83,0.00,,,0.00,Wunderground v.1.15,2013-08-06 20:28:00,
2013-08-06 16:30:00,78.5,72.5,29.89,NE,54,1.0,3.0,82,0.00,,,0.00,Wunderground v.1.15,2013-08-06 20:30:00,
2013-08-06 16:32:00,79.0,73.0,29.89,ENE,66,1.0,3.0,82,0.00,,,0.00,Wunderground v.1.15,2013-08-06 20:32:00,
2013-08-06 16:34:00,79.5,72.8,29.89,East,87,2.0,3.0,80,0.00,,,0.00,Wunderground v.1.15,2013-08-06 20:34:00,
2013-08-06 16:38:00,80.4,72.9,29.89,ESE,114,2.0,3.0,78,0.00,,,0.00,Wunderground v.1.15,2013-08-06 20:38:00,
2013-08-06 16:40:00,80.7,73.2,29.89,East,87,2.0,3.0,78,0.00,,,0.00,Wunderground v.1.15,2013-08-06 20:40:00,
2013-08-06 16:44:00,81.1,72.8,29.89,ENE,66,2.0,3.0,76,0.00,,,0.00,Wunderground v.1.15,2013-08-06 20:44:00,
2013-08-06 16:48:00,81.2,73.3,29.89,East,97,2.0,3.0,77,0.00,,,0.00,Wunderground v.1.15,2013-08-06 20:48:00,
2013-08-06 16:50:00,81.3,72.6,29.89,ENE,64,1.0,3.0,75,0.00,,,0.00,Wunderground v.1.15,2013-08-06 20:50:00,
2013-08-06 16:52:00,80.9,72.2,29.89,ENE,58,2.0,3.0,75,0.00,,,0.00,Wunderground v.1.15,2013-08-06 20:52:00,
2013-08-06 16:56:00,80.1,72.2,29.89,ENE,62,2.0,3.0,77,0.00,,,0.00,Wunderground v.1.15,2013-08-06 20:56:00,
2013-08-06 16:58:00,79.8,72.3,29.89,ENE,62,2.0,3.0,78,0.00,,,0.00,Wunderground v.1.15,2013-08-06 20:58:00,
2013-08-06 17:02:00,79.8,73.1,29.89,ENE,62,2.0,3.0,80,0.00,,,0.00,Wunderground v.1.15,2013-08-06 21:02:00,
2013-08-06 17:04:00,80.0,72.9,29.89,ENE,62,1.0,3.0,79,0.00,,,0.00,Wunderground v.1.15,2013-08-06 21:04:00,
2013-08-06 17:08:00,80.6,73.5,29.89,ESE,110,1.0,3.0,79,0.00,,,0.00,Wunderground v.1.15,2013-08-06 21:08:00,
2013-08-06 17:10:00,80.9,73.4,29.89,East,91,1.0,3.0,78,0.00,,,0.00,Wunderground v.1.15,2013-08-06 21:10:00,
2013-08-06 17:14:00,81.4,73.1,29.88,East,82,1.0,3.0,76,0.00,,,0.00,Wunderground v.1.15,2013-08-06 21:14:00,
2013-08-06 17:16:00,81.3,72.6,29.88,ENE,75,1.0,3.0,75,0.00,,,0.00,Wunderground v.1.15,2013-08-06 21:16:00,
2013-08-06 17:18:00,81.3,73.0,29.89,ENE,75,1.0,3.0,76,0.00,,,0.00,Wunderground v.1.15,2013-08-06 21:18:00,
2013-08-06 17:22:00,81.4,73.5,29.89,ENE,75,1.0,3.0,77,0.00,,,0.00,Wunderground v.1.15,2013-08-06 21:22:00,
2013-08-06 17:26:00,81.4,73.1,29.88,ESE,120,0.0,3.0,76,0.00,,,0.00,Wunderground v.1.15,2013-08-06 21:26:00,
2013-08-06 17:30:00,81.0,72.7,29.88,ESE,123,1.0,1.0,76,0.00,,,0.00,Wunderground v.1.15,2013-08-06 21:30:00,
2013-08-06 17:32:00,80.6,73.1,29.88,ENE,66,1.0,3.0,78,0.00,,,0.00,Wunderground v.1.15,2013-08-06 21:32:00,
2013-08-06 17:34:00,80.4,72.9,29.88,ENE,66,1.0,3.0,78,0.00,,,0.00,Wunderground v.1.15,2013-08-06 21:34:00,
2013-08-06 17:36:00,80.3,73.2,29.88,ENE,66,1.0,3.0,79,0.00,,,0.00,Wunderground v.1.15,2013-08-06 21:36:00,
2013-08-06 17:38:00,80.3,73.6,29.88,ENE,66,1.0,3.0,80,0.00,,,0.00,Wunderground v.1.15,2013-08-06 21:38:00,
2013-08-06 17:44:00,80.7,73.6,29.88,East,85,0.0,3.0,79,0.00,,,0.00,Wunderground v.1.15,2013-08-06 21:44:00,
2013-08-06 17:46:00,80.9,73.8,29.88,East,85,0.0,3.0,79,0.00,,,0.00,Wunderground v.1.15,2013-08-06 21:46:00,
2013-08-06 17:48:00,81.2,73.7,29.88,East,93,0.0,3.0,78,0.00,,,0.00,Wunderground v.1.15,2013-08-06 21:48:00,
2013-08-06 17:52:00,81.6,73.7,29.88,SE,131,1.0,3.0,77,0.00,,,0.00,Wunderground v.1.15,2013-08-06 21:52:00,
2013-08-06 17:54:00,81.4,73.1,29.88,SSE,151,1.0,5.0,76,0.00,,,0.00,Wunderground v.1.15,2013-08-06 21:54:00,
2013-08-06 17:58:00,80.9,73.0,29.88,SE,127,2.0,5.0,77,0.00,,,0.00,Wunderground v.1.15,2013-08-06 21:58:00,
2013-08-06 18:00:00,81.1,73.2,29.88,SE,144,2.0,2.0,77,0.00,,,0.00,Wunderground v.1.15,2013-08-06 22:00:00,
2013-08-06 18:02:00,81.4,73.5,29.88,SE,146,2.0,4.0,77,0.00,,,0.00,Wunderground v.1.15,2013-08-06 22:02:00,
2013-08-06 18:06:00,81.5,73.2,29.88,SSE,151,1.0,4.0,76,0.00,,,0.00,Wunderground v.1.15,2013-08-06 22:06:00,
2013-08-06 18:12:00,81.9,73.6,29.88,SE,133,2.0,3.0,76,0.00,,,0.00,Wunderground v.1.15,2013-08-06 22:12:00,
2013-08-06 18:14:00,82.2,73.9,29.88,ESE,118,1.0,3.0,76,0.00,,,0.00,Wunderground v.1.15,2013-08-06 22:14:00,
2013-08-06 18:16:00,82.4,73.7,29.88,SE,132,2.0,3.0,75,0.00,,,0.00,Wunderground v.1.15,2013-08-06 22:16:00,
2013-08-06 18:18:00,82.4,74.1,29.88,SE,128,1.0,3.0,76,0.00,,,0.00,Wunderground v.1.15,2013-08-06 22:18:00,
2013-08-06 18:20:00,82.7,74.0,29.88,SE,131,1.0,3.0,75,0.00,,,0.00,Wunderground v.1.15,2013-08-06 22:20:00,
2013-08-06 18:24:00,82.5,74.2,29.88,SSE,151,2.0,3.0,76,0.00,,,0.00,Wunderground v.1.15,2013-08-06 22:24:00,
2013-08-06 18:30:00,81.3,73.4,29.88,SE,135,3.0,3.0,77,0.00,,,0.00,Wunderground v.1.15,2013-08-06 22:30:00,
2013-08-06 18:32:00,80.7,72.8,29.88,SE,135,3.0,3.0,77,0.00,,,0.00,Wunderground v.1.15,2013-08-06 22:32:00,
2013-08-06 18:34:00,80.2,72.7,29.87,ESE,114,3.0,4.0,78,0.00,,,0.00,Wunderground v.1.15,2013-08-06 22:34:00,
2013-08-06 18:36:00,79.9,72.8,29.87,SE,144,3.0,4.0,79,0.00,,,0.00,Wunderground v.1.15,2013-08-06 22:36:00,
2013-08-06 18:38:00,79.7,73.0,29.87,SE,135,3.0,4.0,80,0.00,,,0.00,Wunderground v.1.15,2013-08-06 22:38:00,
2013-08-06 18:40:00,79.5,72.8,29.88,SE,137,2.0,2.0,80,0.00,,,0.00,Wunderground v.1.15,2013-08-06 22:40:00,
2013-08-06 18:42:00,79.5,73.2,29.88,SE,137,2.0,3.0,81,0.00,,,0.00,Wunderground v.1.15,2013-08-06 22:42:00,
2013-08-06 18:48:00,79.7,73.0,29.88,SE,137,2.0,3.0,80,0.00,,,0.00,Wunderground v.1.15,2013-08-06 22:48:00,
2013-08-06 18:50:00,79.8,73.1,29.87,SE,137,2.0,2.0,80,0.00,,,0.00,Wunderground v.1.15,2013-08-06 22:50:00,
2013-08-06 18:54:00,80.3,73.9,29.87,SE,137,1.0,3.0,81,0.00,,,0.00,Wunderground v.1.15,2013-08-06 22:54:00,
2013-08-06 18:56:00,80.6,73.9,29.87,SE,137,1.0,3.0,80,0.00,,,0.00,Wunderground v.1.15,2013-08-06 22:56:00,
2013-08-06 18:58:00,80.7,74.0,29.87,SSE,147,1.0,5.0,80,0.00,,,0.00,Wunderground v.1.15,2013-08-06 22:58:00,
2013-08-06 19:00:00,80.7,73.6,29.87,SE,144,1.0,1.0,79,0.00,,,0.00,Wunderground v.1.15,2013-08-06 23:00:00,
2013-08-06 19:04:00,80.5,73.0,29.87,SE,143,2.0,6.0,78,0.00,,,0.00,Wunderground v.1.15,2013-08-06 23:04:00,
2013-08-06 19:06:00,80.2,73.5,29.87,SSE,147,2.0,6.0,80,0.00,,,0.00,Wunderground v.1.15,2013-08-06 23:06:00,
2013-08-06 19:10:00,79.6,72.9,29.87,SSE,160,3.0,3.0,80,0.00,,,0.00,Wunderground v.1.15,2013-08-06 23:10:00,
2013-08-06 19:12:00,79.4,73.1,29.87,SE,146,3.0,3.0,81,0.00,,,0.00,Wunderground v.1.15,2013-08-06 23:12:00,
2013-08-06 19:14:00,79.4,73.1,29.87,SE,145,3.0,4.0,81,0.00,,,0.00,Wunderground v.1.15,2013-08-06 23:14:00,
2013-08-06 19:16:00,79.3,73.0,29.87,SE,146,3.0,4.0,81,0.00,,,0.00,Wunderground v.1.15,2013-08-06 23:16:00,
2013-08-06 19:18:00,79.3,73.0,29.87,SE,146,3.0,4.0,81,0.00,,,0.00,Wunderground v.1.15,2013-08-06 23:18:00,
2013-08-06 19:20:00,79.3,73.3,29.87,SE,146,2.0,2.0,82,0.00,,,0.00,Wunderground v.1.15,2013-08-06 23:20:00,
2013-08-06 19:24:00,79.2,73.2,29.87,SE,146,2.0,3.0,82,0.00,,,0.00,Wunderground v.1.15,2013-08-06 23:24:00,
2013-08-06 19:26:00,79.2,73.2,29.87,SE,146,1.0,3.0,82,0.00,,,0.00,Wunderground v.1.15,2013-08-06 23:26:00,
2013-08-06 19:30:00,79.0,72.7,29.88,SE,146,1.0,3.0,81,0.00,,,0.00,Wunderground v.1.15,2013-08-06 23:30:00,
2013-08-06 19:32:00,79.0,73.0,29.87,SE,146,1.0,3.0,82,0.00,,,0.00,Wunderground v.1.15,2013-08-06 23:32:00,
2013-08-06 19:34:00,79.0,73.0,29.88,SE,146,1.0,3.0,82,0.00,,,0.00,Wunderground v.1.15,2013-08-06 23:34:00,
2013-08-06 19:38:00,79.1,73.1,29.88,SSE,147,1.0,3.0,82,0.00,,,0.00,Wunderground v.1.15,2013-08-06 23:38:00,
2013-08-06 19:40:00,79.1,73.1,29.88,SSE,163,1.0,3.0,82,0.00,,,0.00,Wunderground v.1.15,2013-08-06 23:40:00,
2013-08-06 19:42:00,79.0,73.0,29.88,SSE,152,1.0,4.0,82,0.00,,,0.00,Wunderground v.1.15,2013-08-06 23:42:00,
2013-08-06 19:46:00,78.9,72.9,29.88,SSE,147,2.0,4.0,82,0.00,,,0.00,Wunderground v.1.15,2013-08-06 23:46:00,
2013-08-06 19:48:00,78.8,72.8,29.88,SSE,153,2.0,4.0,82,0.00,,,0.00,Wunderground v.1.15,2013-08-06 23:48:00,
2013-08-06 19:50:00,78.7,72.7,29.88,SSE,154,2.0,3.0,82,0.00,,,0.00,Wunderground v.1.15,2013-08-06 23:50:00,
2013-08-06 19:54:00,78.5,72.5,29.87,SSE,152,3.0,3.0,82,0.00,,,0.00,Wunderground v.1.15,2013-08-06 23:54:00,
2013-08-06 19:56:00,78.5,72.9,29.87,SSE,166,3.0,3.0,83,0.00,,,0.00,Wunderground v.1.15,2013-08-06 23:56:00,
2013-08-06 19:58:00,78.5,72.9,29.88,South,177,3.0,3.0,83,0.00,,,0.00,Wunderground v.1.15,2013-08-06 23:58:00,
2013-08-06 20:02:00,78.5,72.5,29.88,SSE,159,3.0,3.0,82,0.00,,,0.00,Wunderground v.1.15,2013-08-07 00:02:00,
2013-08-06 20:04:00,78.4,72.8,29.88,SSE,154,3.0,3.0,83,0.00,,,0.00,Wunderground v.1.15,2013-08-07 00:04:00,
2013-08-06 20:06:00,78.4,72.8,29.88,SSE,161,3.0,3.0,83,0.00,,,0.00,Wunderground v.1.15,2013-08-07 00:06:00,
2013-08-06 20:10:00,78.3,72.7,29.88,South,170,2.0,3.0,83,0.00,,,0.00,Wunderground v.1.15,2013-08-07 00:10:00,
2013-08-06 20:12:00,78.3,72.7,29.88,SSE,164,2.0,3.0,83,0.00,,,0.00,Wunderground v.1.15,2013-08-07 00:12:00,
2013-08-06 20:16:00,78.2,72.6,29.88,SSE,164,2.0,3.0,83,0.00,,,0.00,Wunderground v.1.15,2013-08-07 00:16:00,
2013-08-06 20:18:00,78.1,72.5,29.88,SSE,164,2.0,3.0,83,0.00,,,0.00,Wunderground v.1.15,2013-08-07 00:18:00,
2013-08-06 20:24:00,77.8,72.2,29.88,SSE,164,1.0,3.0,83,0.00,,,0.00,Wunderground v.1.15,2013-08-07 00:24:00,
2013-08-06 20:26:00,77.8,72.2,29.88,SSE,164,1.0,3.0,83,0.00,,,0.00,Wunderground v.1.15,2013-08-07 00:26:00,
2013-08-06 20:30:00,77.6,72.4,29.88,SSE,164,1.0,3.0,84,0.00,,,0.00,Wunderground v.1.15,2013-08-07 00:30:00,
2013-08-06 20:32:00,77.6,72.4,29.88,SSE,164,1.0,3.0,84,0.00,,,0.00,Wunderground v.1.15,2013-08-07 00:32:00,
2013-08-06 20:34:00,77.5,72.3,29.88,SSE,164,1.0,3.0,84,0.00,,,0.00,Wunderground v.1.15,2013-08-07 00:34:00,
2013-08-06 20:36:00,77.4,72.2,29.88,SSE,164,1.0,3.0,84,0.00,,,0.00,Wunderground v.1.15,2013-08-07 00:36:00,
2013-08-06 20:40:00,77.3,72.1,29.88,South,188,2.0,3.0,84,0.00,,,0.00,Wunderground v.1.15,2013-08-07 00:40:00,
2013-08-06 20:42:00,77.3,72.1,29.88,South,188,2.0,3.0,84,0.00,,,0.00,Wunderground v.1.15,2013-08-07 00:42:00,
2013-08-06 20:44:00,77.2,72.0,29.88,South,174,1.0,3.0,84,0.00,,,0.00,Wunderground v.1.15,2013-08-07 00:44:00,
2013-08-06 20:46:00,77.1,71.9,29.88,South,175,1.0,3.0,84,0.00,,,0.00,Wunderground v.1.15,2013-08-07 00:46:00,
2013-08-06 20:50:00,77.0,72.1,29.88,South,175,1.0,3.0,85,0.00,,,0.00,Wunderground v.1.15,2013-08-07 00:50:00,
2013-08-06 20:52:00,76.9,72.0,29.88,South,175,1.0,3.0,85,0.00,,,0.00,Wunderground v.1.15,2013-08-07 00:52:00,
2013-08-06 20:56:00,76.8,71.9,29.88,South,174,2.0,3.0,85,0.00,,,0.00,Wunderground v.1.15,2013-08-07 00:56:00,
2013-08-06 20:58:00,76.8,71.9,29.88,South,175,2.0,3.0,85,0.00,,,0.00,Wunderground v.1.15,2013-08-07 00:58:00,
2013-08-06 21:00:00,76.7,71.8,29.88,South,175,2.0,3.0,85,0.00,,,0.00,Wunderground v.1.15,2013-08-07 01:00:00,
2013-08-06 21:04:00,76.6,71.7,29.88,South,175,2.0,3.0,85,0.00,,,0.00,Wunderground v.1.15,2013-08-07 01:04:00,
2013-08-06 21:06:00,76.5,71.7,29.88,South,174,2.0,3.0,85,0.00,,,0.00,Wunderground v.1.15,2013-08-07 01:06:00,
2013-08-06 21:08:00,76.4,71.9,29.88,South,174,2.0,3.0,86,0.00,,,0.00,Wunderground v.1.15,2013-08-07 01:08:00,
2013-08-06 21:12:00,76.3,71.8,29.88,South,174,2.0,3.0,86,0.00,,,0.00,Wunderground v.1.15,2013-08-07 01:12:00,
2013-08-06 21:14:00,76.2,71.7,29.88,South,174,2.0,3.0,86,0.00,,,0.00,Wunderground v.1.15,2013-08-07 01:14:00,
2013-08-06 21:16:00,76.2,71.7,29.88,South,174,1.0,3.0,86,0.00,,,0.00,Wunderground v.1.15,2013-08-07 01:16:00,
2013-08-06 21:18:00,76.1,71.6,29.88,South,174,1.0,3.0,86,0.00,,,0.00,Wunderground v.1.15,2013-08-07 01:18:00,
2013-08-06 21:20:00,76.0,71.5,29.88,South,174,1.0,3.0,86,0.00,,,0.00,Wunderground v.1.15,2013-08-07 01:20:00,
2013-08-06 21:24:00,76.0,71.8,29.88,South,175,1.0,3.0,87,0.00,,,0.00,Wunderground v.1.15,2013-08-07 01:24:00,
2013-08-06 21:26:00,76.0,71.8,29.88,South,174,1.0,3.0,87,0.00,,,0.00,Wunderground v.1.15,2013-08-07 01:26:00,
2013-08-06 21:30:00,76.0,71.8,29.88,South,174,1.0,3.0,87,0.00,,,0.00,Wunderground v.1.15,2013-08-07 01:30:00,
2013-08-06 21:32:00,75.9,71.8,29.88,South,175,1.0,3.0,87,0.00,,,0.00,Wunderground v.1.15,2013-08-07 01:32:00,
2013-08-06 21:36:00,75.7,71.6,29.88,South,174,2.0,3.0,87,0.00,,,0.00,Wunderground v.1.15,2013-08-07 01:36:00,
2013-08-06 21:38:00,75.7,71.6,29.88,South,174,2.0,3.0,87,0.00,,,0.00,Wunderground v.1.15,2013-08-07 01:38:00,
2013-08-06 21:40:00,75.6,71.5,29.88,South,174,2.0,2.0,87,0.00,,,0.00,Wunderground v.1.15,2013-08-07 01:40:00,
2013-08-06 21:42:00,75.5,71.7,29.88,South,174,2.0,3.0,88,0.00,,,0.00,Wunderground v.1.15,2013-08-07 01:42:00,
2013-08-06 21:44:00,75.4,71.6,29.88,South,174,1.0,3.0,88,0.00,,,0.00,Wunderground v.1.15,2013-08-07 01:44:00,
2013-08-06 21:46:00,75.4,71.3,29.88,South,174,1.0,3.0,87,0.00,,,0.00,Wunderground v.1.15,2013-08-07 01:46:00,
2013-08-06 21:48:00,75.3,71.2,29.88,South,175,0.0,3.0,87,0.00,,,0.00,Wunderground v.1.15,2013-08-07 01:48:00,
2013-08-06 21:50:00,75.1,71.0,29.88,South,174,0.0,3.0,87,0.00,,,0.00,Wunderground v.1.15,2013-08-07 01:50:00,
2013-08-06 21:52:00,74.8,71.0,29.88,South,174,0.0,3.0,88,0.00,,,0.00,Wunderground v.1.15,2013-08-07 01:52:00,
2013-08-06 21:54:00,74.5,70.7,29.88,South,174,1.0,3.0,88,0.00,,,0.00,Wunderground v.1.15,2013-08-07 01:54:00,
2013-08-06 21:58:00,74.2,70.7,29.88,South,174,1.0,3.0,89,0.00,,,0.00,Wunderground v.1.15,2013-08-07 01:58:00,
2013-08-06 22:00:00,74.0,70.9,29.88,South,174,1.0,3.0,90,0.00,,,0.00,Wunderground v.1.15,2013-08-07 02:00:00,
2013-08-06 22:02:00,73.9,70.8,29.88,South,174,1.0,3.0,90,0.00,,,0.00,Wunderground v.1.15,2013-08-07 02:02:00,
2013-08-06 22:04:00,73.7,70.6,29.88,South,174,1.0,3.0,90,0.00,,,0.00,Wunderground v.1.15,2013-08-07 02:04:00,
2013-08-06 22:06:00,73.6,70.8,29.88,South,174,1.0,3.0,91,0.00,,,0.00,Wunderground v.1.15,2013-08-07 02:06:00,
2013-08-06 22:08:00,73.6,70.8,29.88,South,175,1.0,3.0,91,0.00,,,0.00,Wunderground v.1.15,2013-08-07 02:08:00,
2013-08-06 22:10:00,73.5,70.7,29.88,South,175,1.0,1.0,91,0.00,,,0.00,Wunderground v.1.15,2013-08-07 02:10:00,
2013-08-06 22:12:00,73.5,70.7,29.88,South,174,1.0,3.0,91,0.00,,,0.00,Wunderground v.1.15,2013-08-07 02:12:00,
2013-08-06 22:16:00,73.6,71.1,29.88,South,174,0.0,3.0,92,0.00,,,0.00,Wunderground v.1.15,2013-08-07 02:16:00,
2013-08-06 22:18:00,73.6,70.8,29.88,South,174,0.0,3.0,91,0.00,,,0.00,Wunderground v.1.15,2013-08-07 02:18:00,
2013-08-06 22:22:00,73.7,70.9,29.88,South,174,1.0,3.0,91,0.00,,,0.00,Wunderground v.1.15,2013-08-07 02:22:00,
2013-08-06 22:26:00,73.7,70.9,29.88,South,174,1.0,3.0,91,0.00,,,0.00,Wunderground v.1.15,2013-08-07 02:26:00,
2013-08-06 22:28:00,73.7,70.9,29.88,South,174,1.0,3.0,91,0.00,,,0.00,Wunderground v.1.15,2013-08-07 02:28:00,
2013-08-06 22:34:00,73.6,70.8,29.89,South,175,1.0,3.0,91,0.00,,,0.00,Wunderground v.1.15,2013-08-07 02:34:00,
2013-08-06 22:36:00,73.6,70.8,29.89,South,174,1.0,3.0,91,0.00,,,0.00,Wunderground v.1.15,2013-08-07 02:36:00,
2013-08-06 22:40:00,73.5,70.7,29.89,South,174,0.0,3.0,91,0.00,,,0.00,Wunderground v.1.15,2013-08-07 02:40:00,
2013-08-06 22:42:00,73.5,70.7,29.89,South,174,0.0,3.0,91,0.00,,,0.00,Wunderground v.1.15,2013-08-07 02:42:00,
2013-08-06 22:44:00,73.5,71.0,29.89,South,174,0.0,3.0,92,0.00,,,0.00,Wunderground v.1.15,2013-08-07 02:44:00,
2013-08-06 22:48:00,73.6,71.1,29.89,South,174,0.0,3.0,92,0.00,,,0.00,Wunderground v.1.15,2013-08-07 02:48:00,
2013-08-06 22:50:00,73.6,71.1,29.89,South,174,0.0,3.0,92,0.00,,,0.00,Wunderground v.1.15,2013-08-07 02:50:00,
2013-08-06 22:54:00,73.7,71.2,29.89,South,174,1.0,3.0,92,0.00,,,0.00,Wunderground v.1.15,2013-08-07 02:54:00,
2013-08-06 22:56:00,73.6,70.8,29.89,South,174,1.0,3.0,91,0.00,,,0.00,Wunderground v.1.15,2013-08-07 02:56:00,
2013-08-06 22:58:00,73.4,70.6,29.89,South,174,1.0,3.0,91,0.00,,,0.00,Wunderground v.1.15,2013-08-07 02:58:00,
2013-08-06 23:02:00,73.1,70.3,29.89,South,174,1.0,3.0,91,0.00,,,0.00,Wunderground v.1.15,2013-08-07 03:02:00,
2013-08-06 23:04:00,73.1,70.6,29.89,South,174,1.0,3.0,92,0.00,,,0.00,Wunderground v.1.15,2013-08-07 03:04:00,
2013-08-06 23:06:00,73.1,70.6,29.90,South,174,1.0,3.0,92,0.00,,,0.00,Wunderground v.1.15,2013-08-07 03:06:00,
2013-08-06 23:10:00,73.3,71.2,29.89,South,174,1.0,3.0,93,0.00,,,0.00,Wunderground v.1.15,2013-08-07 03:10:00,
2013-08-06 23:14:00,73.5,71.4,29.90,South,174,1.0,3.0,93,0.00,,,0.00,Wunderground v.1.15,2013-08-07 03:14:00,
2013-08-06 23:18:00,73.6,71.1,29.90,South,174,1.0,3.0,92,0.00,,,0.00,Wunderground v.1.15,2013-08-07 03:18:00,
2013-08-06 23:20:00,73.7,71.2,29.90,South,175,1.0,3.0,92,0.00,,,0.00,Wunderground v.1.15,2013-08-07 03:20:00,
2013-08-06 23:22:00,73.7,71.2,29.90,South,175,1.0,3.0,92,0.00,,,0.00,Wunderground v.1.15,2013-08-07 03:22:00,
2013-08-06 23:26:00,73.9,71.4,29.90,South,177,1.0,3.0,92,0.00,,,0.00,Wunderground v.1.15,2013-08-07 03:26:00,
2013-08-06 23:28:00,73.9,71.4,29.90,South,170,1.0,3.0,92,0.00,,,0.00,Wunderground v.1.15,2013-08-07 03:28:00,
2013-08-06 23:30:00,73.9,71.4,29.90,South,170,1.0,3.0,92,0.00,,,0.00,Wunderground v.1.15,2013-08-07 03:30:00,
2013-08-06 23:32:00,73.9,71.1,29.90,South,170,1.0,3.0,91,0.00,,,0.00,Wunderground v.1.15,2013-08-07 03:32:00,
2013-08-06 23:34:00,73.8,71.0,29.90,South,171,1.0,3.0,91,0.00,,,0.00,Wunderground v.1.15,2013-08-07 03:34:00,
2013-08-06 23:40:00,73.1,70.0,29.90,South,170,1.0,3.0,90,0.00,,,0.00,Wunderground v.1.15,2013-08-07 03:40:00,
2013-08-06 23:44:00,72.8,70.3,29.90,South,170,0.0,3.0,92,0.00,,,0.00,Wunderground v.1.15,2013-08-07 03:44:00,
2013-08-06 23:48:00,72.8,70.3,29.90,South,171,0.0,3.0,92,0.00,,,0.00,Wunderground v.1.15,2013-08-07 03:48:00,
2013-08-06 23:52:00,72.7,70.6,29.90,South,170,0.0,3.0,93,0.00,,,0.00,Wunderground v.1.15,2013-08-07 03:52:00,
2013-08-06 23:56:00,72.6,70.1,29.90,South,171,1.0,3.0,92,0.00,,,0.00,Wunderground v.1.15,2013-08-07 03:56:00,
2013-08-06 23:58:00,72.4,69.9,29.90,South,170,1.0,3.0,92,0.00,,,0.00,Wunderground v.1.15,2013-08-07 03:58:00,